GRARBER Weather Reports


Display with metric or nautical units.
time (UTC)temp
F
wind
direction
speed
MPH
gust
MPH
rain 1hr
in
rain 24hr
in
rain mn
in
humidity
%
barometer
mb
20260831021754 57 180 16.0 0.0 0.00 0.00 0.00 87
20260831011755 57 200 10.0 0.0 0.00 0.00 0.00 87
20260831001655 57 190 13.0 0.0 0.00 0.00 0.00 87
20260830231855 57 190 10.0 0.0 0.00 0.00 0.00 87
20260830221856 57 200 8.0 0.0 0.00 0.00 0.00 87
20260830211656 57 200 7.0 0.0 0.00 0.00 0.00 82
20260830201855 57 210 9.0 0.0 0.00 0.00 0.00 82
20260830191755 57 200 8.0 0.0 0.00 0.00 0.00 82
20260830181657 59 190 6.0 0.0 0.00 0.00 0.00 82
20260830171854 59 230 14.0 0.0 0.00 0.00 0.00 77
20260830161756 63 230 12.0 21.0 0.00 0.00 0.00 67
20260830151655 61 230 13.0 22.0 0.00 0.00 0.00 72
20260830141754 61 220 15.0 24.0 0.00 0.00 0.00 72
20260830131754 61 220 16.0 28.0 0.00 0.00 0.00 72
20260830121656 61 240 18.0 26.0 0.00 0.00 0.00 67
20260830111754 57 220 17.0 25.0 0.00 0.00 0.00 76
20260830101955 57 210 14.0 22.0 0.00 0.00 0.00 87
20260830091655 52 210 14.0 0.0 0.00 0.00 0.00 99
20260830081755 50 210 15.0 0.0 0.00 0.00 0.00 99
20260830071754 50 220 14.0 0.0 0.00 0.00 0.00 99
20260830061656 52 240 23.0 0.0 0.00 0.00 0.00 87
20260830051755 52 240 25.0 32.0 0.00 0.00 0.00 87
20260830041855 50 230 23.0 0.0 0.00 0.00 0.00 93
20260830031655 52 220 21.0 0.0 0.00 0.00 0.00 87